Weather History for Charlottetown, PE

Change the Weather History Date:

Friday, March 21, 2014

  Actual Average Record
Temperature  
Mean Temperature 35 °F -  
Max Temperature 39 °F 40 °F 68 °F (2012)
Min Temperature 31 °F 26 °F 14 °F (2009)
Degree Days  
Heating Degree Days 30    
Moisture  
Dew Point 31 °F    
Average Humidity 83    
Maximum Humidity 100    
Minimum Humidity 51    
Precipitation  
Precipitation 0.00 in 0.12 in - ()
Sea Level Pressure  
Sea Level Pressure 29.53 in    
Wind  
Wind Speed 12 mph ()    
Max Wind Speed 18 mph    
Max Gust Speed 29 mph    
Visibility 12.3 miles    
Events Rain    
Averages and records for this station are not official NWS values.
T = Trace of Precipitation, MM = Missing Value Source: Averaged Metar Reports

Daily Weather History Graph

Daily Weather History Graph

Search for Another Location

Airport:

Trip Planner

Search our weather history database for the weather conditions in past years. The results will help you decide how hot, cold, wet, or windy it might be!

Date:

Astronomy

Mar. 21, 2014 Rise Set
Actual Time 7:13 AM ADT 7:26 PM ADT
Civil Twilight 6:43 AM ADT 7:56 PM ADT
Nautical Twilight 6:08 AM ADT 8:31 PM ADT
Astronomical Twilight 5:32 AM ADT 9:08 PM ADT
Moon No Moon Rise 9:46 AM ADT (3/21)
Length of Visible Light 13h 12m
Length of Day
12h 12m
Waning Gibbous, 76% of the Moon is Illuminated
Mar 21
Waning Gibbous
Mar 23
Last Quarter
Mar 30
New
Apr 7
First Quarter
Apr 15
Full

Hourly Weather History & Observations

Time (ADT) Temp. Windchill Dew Point Humidity Pressure Visibility Wind Dir Wind Speed Gust Speed Precip Events Conditions
12:00 AM 37.4 °F 28.2 °F 35.6 °F 93% 29.48 in 3.0 mi SSE 16.1 mph 23.0 mph N/A   Light Drizzle
12:12 AM 37.4 °F 27.8 °F 37.4 °F 100% 29.48 in 2.0 mi SSE 17.3 mph - N/A   Light Drizzle
12:26 AM 37.4 °F 28.5 °F 37.4 °F 100% 29.47 in 1.2 mi SSE 15.0 mph - N/A   Light Drizzle
12:41 AM 37.4 °F 29.3 °F 35.6 °F 93% 29.47 in 0.8 mi SSE 12.7 mph 18.4 mph N/A   Light Drizzle
1:00 AM 37.4 °F 29.8 °F 37.4 °F 100% 29.48 in 4.0 mi South 11.5 mph - N/A   Light Drizzle
1:15 AM 37.4 °F 28.9 °F 37.4 °F 100% 29.47 in 8.0 mi South 13.8 mph - N/A   Overcast
2:00 AM 39.2 °F 32.0 °F 37.4 °F 93% 29.48 in 15.0 mi SSW 11.5 mph - N/A   Overcast
2:32 AM 37.4 °F 28.5 °F 35.6 °F 93% 29.48 in 12.0 mi SW 15.0 mph - N/A   Light Drizzle
3:00 AM 36 °F - 35 °F 93% 29.48 in 7 mi SSW 13.8 mph - - Rain Light Drizzle
3:00 AM 37.4 °F 29.3 °F 33.8 °F 87% 29.48 in 8.0 mi SSW 12.7 mph 21.9 mph N/A   Light Drizzle
3:09 AM 35.6 °F 27.1 °F 33.8 °F 93% 29.49 in 7.0 mi SW 12.7 mph 19.6 mph N/A   Light Drizzle
3:41 AM 35.6 °F 26.6 °F 33.8 °F 93% 29.50 in 12.0 mi WSW 13.8 mph - N/A   Mostly Cloudy
4:00 AM 35.6 °F 28.6 °F 32.0 °F 87% 29.50 in 15.0 mi SW 9.2 mph - N/A   Partly Cloudy
5:00 AM 33.8 °F 25.3 °F 32.0 °F 93% 29.52 in 15.0 mi SW 11.5 mph 17.3 mph N/A   Scattered Clouds
6:00 AM 33.8 °F 25.3 °F 30.2 °F 87% 29.53 in 15.0 mi SW 11.5 mph - N/A   Scattered Clouds
6:28 AM 33.8 °F 25.8 °F 30.2 °F 87% 29.53 in 15.0 mi SSW 10.4 mph - N/A   Mostly Cloudy
7:00 AM 32.0 °F 23.6 °F 30.2 °F 93% 29.53 in 15.0 mi SSW 10.4 mph 18.4 mph N/A   Scattered Clouds
8:00 AM 32.0 °F 23.0 °F 30.2 °F 93% 29.54 in 15.0 mi SSW 11.5 mph - N/A   Scattered Clouds
9:00 AM 34 °F - 31 °F 82% 29.54 in 15 mi SSW 13.8 mph - -   Partly Cloudy
9:00 AM 33.8 °F 23.9 °F 30.2 °F 87% 29.54 in 15.0 mi SSW 15.0 mph - N/A   Scattered Clouds
10:00 AM 35.6 °F 25.2 °F 30.2 °F 81% 29.54 in 15.0 mi SSW 18.4 mph - N/A   Mostly Cloudy
11:00 AM 37.4 °F 28.5 °F 30.2 °F 75% 29.53 in 15.0 mi SSW 15.0 mph 23.0 mph N/A   Scattered Clouds
12:00 PM 37.4 °F 28.2 °F 30.2 °F 75% 29.53 in 15.0 mi SW 16.1 mph 25.3 mph N/A   Scattered Clouds
1:00 PM 37.4 °F 28.2 °F 28.4 °F 70% 29.53 in 15.0 mi SSW 16.1 mph 26.5 mph N/A   Mostly Cloudy
2:00 PM 37.4 °F 27.5 °F 24.8 °F 60% 29.52 in 15.0 mi SW 18.4 mph 26.5 mph N/A   Mostly Cloudy
3:00 PM 38 °F - 26 °F 51% 29.52 in 15 mi SW 13.8 mph - -   Mostly Cloudy
3:00 PM 39.2 °F 31.2 °F 26.6 °F 61% 29.52 in 15.0 mi SW 13.8 mph 23.0 mph N/A   Mostly Cloudy
4:00 PM 37.4 °F 27.8 °F 26.6 °F 65% 29.52 in 15.0 mi WSW 17.3 mph 28.8 mph N/A   Mostly Cloudy
5:00 PM 37.4 °F 28.9 °F 26.6 °F 65% 29.53 in 15.0 mi WSW 13.8 mph 21.9 mph N/A   Overcast
6:00 PM 37.4 °F 29.3 °F 28.4 °F 70% 29.55 in 15.0 mi WSW 12.7 mph 21.9 mph N/A   Mostly Cloudy
6:33 PM 35.6 °F 27.5 °F 28.4 °F 75% 29.56 in 15.0 mi WSW 11.5 mph 18.4 mph N/A   Mostly Cloudy
7:00 PM 35.6 °F 27.5 °F 28.4 °F 75% 29.57 in 15.0 mi SW 11.5 mph - N/A   Overcast
8:00 PM 35.6 °F 27.1 °F 28.4 °F 75% 29.60 in 15.0 mi WSW 12.7 mph 19.6 mph N/A   Overcast
9:00 PM 35 °F - 30 °F 74% 29.62 in 15 mi WSW 8.1 mph - -   Overcast
9:00 PM 33.8 °F 26.4 °F 30.2 °F 87% 29.62 in 15.0 mi WSW 9.2 mph - N/A   Overcast
10:00 PM 33.8 °F 26.4 °F 30.2 °F 87% 29.63 in 15.0 mi WSW 9.2 mph - N/A   Mostly Cloudy
11:00 PM 33.8 °F 26.4 °F 30.2 °F 87% 29.65 in 15.0 mi West 9.2 mph - N/A   Mostly Cloudy